Regional Weather Roundup
Issued by NWS

Home | Current Version | Previous Version | Text Only | Print | Product List | Glossary Off
Versions: 1 2 3 4 5 6 7 8 9 10 11 12 13 14 15 16 17 18 19 20 21 22 23 24 25 26 27 28 29 30 31 32 33 34 35 36 37 38 39 40 41 42 43 44 45 46 47 48 49 50

000
ASUS43 KTOP 201108
RWRKS

WEATHER ROUNDUP FOR KANSAS
NATIONAL WEATHER SERVICE GOODLAND KS
600 AM CDT SAT SEP 20 2014

NOTE:  "FAIR" INDICATES FEW OR NO CLOUDS BELOW 12,000 FEET WITH NO
SIGNIFICANT WEATHER AND/OR OBSTRUCTIONS TO VISIBILITY.

KSZ001>006-013>018-027>032-041>047-201200-
NORTHWEST KANSAS

CITY           SKY/WX    TMP DP  RH WIND       PRES   REMARKS
GOODLAND       CLEAR     60  58  92 W10       30.00R
HAYS           CLEAR     66  57  72 SW14      29.92S
HILL CITY      CLEAR     67  61  81 SW10      29.91S
RUSSELL        CLEAR     68  61  78 S14       29.90F
$$

KSZ061>065-074>080-084>089-201200-
SOUTHWEST KANSAS

CITY           SKY/WX    TMP DP  RH WIND       PRES   REMARKS
DODGE CITY     CLEAR     65  61  87 S9        29.98R
ELKHART          N/A     64  60  87 S7          N/A
GARDEN CITY    CLEAR     62  60  93 S8        29.98R
GREAT BEND     CLEAR     66  61  82 S7        29.95F
LIBERAL        CLEAR     63  57  82 S8        30.01S
PRATT          CLEAR     63  59  88 S7        29.98F
$$

KSZ066>073-081>083-090>101-201200-
SOUTHEAST KANSAS

CITY           SKY/WX    TMP DP  RH WIND       PRES   REMARKS
CHANUTE        CLEAR     67  66  97 SW7       29.99R FOG
HUTCHINSON     CLEAR     67  63  87 S7        29.96S
MEDICINE LODGE   N/A     63  61  93 CALM      29.97R
NEWTON         CLEAR     70  63  78 SW13      29.98F
PARSONS        PTCLDY    67  67 100 S3        30.00R FOG
WICHITA INTL   CLEAR     68  65  90 S5        29.97R FOG
WICHITA JABRA  CLEAR     69  67  93 S10       29.97R
WICHITA MCCONL CLEAR     68  68 100 S8        29.98R
WINFIELD       CLEAR     69  68  96 S8        29.99R
$$

KSZ007>012-019>026-033>040-048>060-102>105-201200-
NORTHEAST KANSAS

CITY           SKY/WX    TMP DP  RH WIND       PRES   REMARKS
CONCORDIA      CLEAR     69  64  84 SW15      29.90R
EMPORIA        CLEAR     69  67  93 S14       29.95S
LAWRENCE       CLEAR     68  66  93 S8        29.93S FOG
MANHATTAN      CLEAR     70  68  93 SW10      29.92R FOG
MARYSVILLE     CLEAR     70  66  88 SW8       29.90R
OLATHE IND     CLEAR     67  66  97 S15       29.96R FOG
OLATHE EXE     CLEAR     66  65  96 SW7       29.95R FOG
SALINA         CLEAR     68  64  87 S12       29.92S
TOPEKA BILLARD CLEAR     70  68  93 SW6       29.93R
TOPEKA FORBES  CLEAR     68  66  93 S10       29.93S FOG
$$



USA.gov is the U.S. government's official web portal to all federal, state and local government web resources and services.